Radiation Dose at Monitoring Post of Fukushima Daini Nuclear Power Station
Date,Time,MP-1(microSv/h),MP-2(microSv/h),MP-3(microSv/h),MP-4(microSv/h),MP-5(microSv/h),MP-6(microSv/h),MP-7(microSv/h),Wind Direction,Wind Velocity(m/s),Rain
2014/05/12,00:00,0.7,0.5,0.7,0.7,0.6,0.3,0.3,southwest,7.0,No
2014/05/12,00:10,0.7,0.5,0.7,0.7,0.7,0.3,0.3,southwest,8.1,No
2014/05/12,00:20,0.7,0.5,0.7,0.7,0.6,0.3,0.3,southwest,9.1,No
2014/05/12,00:30,0.7,0.5,0.7,0.7,0.6,0.3,0.3,southwest,7.7,No
2014/05/12,00:40,0.7,0.5,0.7,0.7,0.6,0.3,0.3,southwest,7.6,No
2014/05/12,00:50,0.7,0.5,0.7,0.7,0.6,0.3,0.3,southwest,8.1,No
2014/05/12,01:00,0.7,0.5,0.7,0.7,0.6,0.3,0.3,southwest,7.7,No
2014/05/12,01:10,0.7,0.5,0.7,0.7,0.6,0.3,0.3,southwest,6.2,No
2014/05/12,01:20,0.7,0.5,0.7,0.7,0.6,0.3,0.3,southwest,6.5,No
2014/05/12,01:30,0.7,0.5,0.7,0.7,0.7,0.3,0.3,southwest,7.5,No
2014/05/12,01:40,0.7,0.5,0.7,0.7,0.6,0.3,0.3,southwest,6.6,No
2014/05/12,01:50,0.7,0.5,0.7,0.7,0.6,0.3,0.3,southwest,6.0,No
2014/05/12,02:00,0.7,0.5,0.7,0.7,0.6,0.3,0.3,southwest,5.9,No
2014/05/12,02:10,0.7,0.5,0.7,0.7,0.6,0.3,0.3,southwest,6.1,No
2014/05/12,02:20,0.7,0.5,0.7,0.7,0.6,0.3,0.3,southwest,6.2,No
2014/05/12,02:30,0.7,0.5,0.7,0.7,0.6,0.3,0.3,southwest,4.4,No
2014/05/12,02:40,0.7,0.5,0.7,0.7,0.6,0.3,0.3,southwest,4.3,No
2014/05/12,02:50,0.7,0.5,0.7,0.7,0.6,0.3,0.3,southwest,5.2,No
2014/05/12,03:00,0.7,0.5,0.7,0.7,0.6,0.3,0.3,south-southwest,4.8,No
2014/05/12,03:10,0.7,0.5,0.7,0.7,0.6,0.3,0.3,south-southwest,5.1,No
2014/05/12,03:20,0.7,0.5,0.7,0.7,0.6,0.3,0.3,southwest,5.8,No
2014/05/12,03:30,0.7,0.5,0.7,0.7,0.6,0.3,0.3,southwest,5.9,No
2014/05/12,03:40,0.7,0.5,0.7,0.7,0.6,0.3,0.3,southwest,6.7,No
2014/05/12,03:50,0.7,0.5,0.7,0.7,0.6,0.3,0.3,southwest,7.4,No
2014/05/12,04:00,0.7,0.5,0.7,0.7,0.6,0.3,0.3,southwest,6.7,No
2014/05/12,04:10,0.7,0.5,0.7,0.7,0.6,0.3,0.3,southwest,5.2,No
2014/05/12,04:20,0.7,0.5,0.7,0.7,0.6,0.3,0.3,southwest,4.2,No
2014/05/12,04:30,0.7,0.5,0.7,0.7,0.6,0.3,0.3,southwest,3.6,No
2014/05/12,04:40,0.7,0.5,0.7,0.7,0.6,0.3,0.3,south-southwest,3.9,No
2014/05/12,04:50,0.7,0.5,0.7,0.7,0.6,0.3,0.3,south-southwest,4.4,No
2014/05/12,05:00,0.7,0.5,0.7,0.7,0.6,0.3,0.3,south-southwest,3.7,No
2014/05/12,05:10,0.7,0.5,0.7,0.7,0.6,0.3,0.3,south-southwest,3.8,No
2014/05/12,05:20,0.7,0.5,0.7,0.7,0.6,0.3,0.3,south-southwest,4.2,No
2014/05/12,05:30,0.7,0.5,0.7,0.7,0.6,0.3,0.3,south-southwest,3.5,No
2014/05/12,05:40,0.7,0.5,0.7,0.7,0.7,0.3,0.3,south-southwest,4.3,No
2014/05/12,05:50,0.7,0.5,0.7,0.7,0.6,0.3,0.3,south-southwest,5.1,No
2014/05/12,06:00,0.7,0.5,0.7,0.7,0.6,0.3,0.3,south-southwest,3.8,No
2014/05/12,06:10,0.7,0.5,0.7,0.7,0.6,0.3,0.3,south-southwest,3.2,No
2014/05/12,06:20,0.7,0.5,0.7,0.7,0.6,0.3,0.3,south-southwest,4.5,No
2014/05/12,06:30,0.7,0.5,0.7,0.7,0.6,0.3,0.3,south-southwest,4.3,No
2014/05/12,06:40,0.7,0.5,0.7,0.7,0.7,0.3,0.3,south-southwest,4.4,No
2014/05/12,06:50,0.7,0.5,0.8,0.7,0.7,0.3,0.3,south-southwest,4.7,No
2014/05/12,07:00,0.7,0.5,0.7,0.7,0.7,0.3,0.3,south-southwest,4.7,No
2014/05/12,07:10,0.7,0.5,0.8,0.7,0.6,0.3,0.3,south-southwest,4.7,No
2014/05/12,07:20,0.7,0.5,0.7,0.7,0.7,0.3,0.3,south,4.7,No
2014/05/12,07:30,0.7,0.5,0.8,0.7,0.7,0.3,0.3,south,5.3,No
2014/05/12,07:40,0.7,0.5,0.8,0.7,0.7,0.3,0.3,south,6.4,No
2014/05/12,07:50,0.7,0.5,0.7,0.7,0.6,0.3,0.3,south,7.7,No
2014/05/12,08:00,0.7,0.5,0.8,0.7,0.7,0.3,0.3,south,7.0,No
2014/05/12,08:10,0.7,0.5,0.8,0.7,0.7,0.3,0.3,south,8.5,No
2014/05/12,08:20,0.7,0.5,0.8,0.7,0.7,0.3,0.3,south,8.3,No
2014/05/12,08:30,0.7,0.5,0.8,0.7,0.7,0.3,0.3,south,9.5,No
2014/05/12,08:40,0.7,0.5,0.8,0.7,0.7,0.3,0.3,south,8.6,No
2014/05/12,08:50,0.7,0.5,0.8,0.7,0.7,0.3,0.3,south,9.2,No
2014/05/12,09:00,0.7,0.5,0.8,0.7,0.7,0.3,0.3,south,8.8,No
2014/05/12,09:10,0.7,0.5,0.8,0.7,0.7,0.3,0.3,south,10.3,No
2014/05/12,09:20,0.7,0.5,0.8,0.7,0.7,0.3,0.3,south,9.2,No
2014/05/12,09:30,0.7,0.5,0.8,0.7,0.7,0.3,0.3,south,8.7,No
2014/05/12,09:40,0.7,0.5,0.8,0.7,0.7,0.3,0.3,south,10.7,No
2014/05/12,09:50,0.7,0.5,0.8,0.7,0.7,0.3,0.3,south,11.7,No
2014/05/12,10:00,0.7,0.5,0.8,0.7,0.7,0.3,0.3,south,12.1,No
2014/05/12,10:10,0.7,0.5,0.8,0.7,0.7,0.3,0.3,south,11.1,No
2014/05/12,10:20,0.7,0.5,0.8,0.7,0.7,0.3,0.3,south,12.1,No
2014/05/12,10:30,0.7,0.5,0.8,0.7,0.7,0.3,0.3,south,12.1,No
2014/05/12,10:40,0.7,0.5,0.8,0.7,0.7,0.3,0.3,south,14.2,No
2014/05/12,10:50,0.7,0.5,0.8,0.7,0.7,0.3,0.3,south,13.3,No
2014/05/12,11:00,0.7,0.5,0.8,0.7,0.7,0.3,0.3,south,12.2,No
2014/05/12,11:10,0.7,0.5,0.8,0.7,0.7,0.3,0.3,south,13.4,No
2014/05/12,11:20,0.7,0.5,0.8,0.7,0.7,0.3,0.3,south,14.9,No
2014/05/12,11:30,0.7,0.5,0.8,0.7,0.7,0.3,0.3,south,15.1,No
2014/05/12,11:40,0.7,0.5,0.8,0.7,0.7,0.3,0.3,south,14.5,No
2014/05/12,11:50,0.7,0.5,0.8,0.7,0.7,0.3,0.3,south,14.0,No
2014/05/12,12:00,0.7,0.5,0.8,0.7,0.7,0.3,0.3,south,13.2,No
2014/05/12,12:10,0.7,0.5,0.8,0.7,0.7,0.3,0.3,south,13.7,No
2014/05/12,12:20,0.7,0.5,0.8,0.7,0.7,0.3,0.3,south,13.3,No
2014/05/12,12:30,0.7,0.5,0.8,0.7,0.7,0.3,0.3,south,13.2,No
2014/05/12,12:40,0.7,0.5,0.8,0.7,0.7,0.3,0.3,south,13.2,No
2014/05/12,12:50,0.7,0.5,0.8,0.7,0.7,0.3,0.3,south-southeast,11.9,No
2014/05/12,13:00,0.7,0.5,0.8,0.7,0.7,0.3,0.3,south,13.1,No
2014/05/12,13:10,0.7,0.5,0.8,0.7,0.7,0.3,0.3,south,14.1,No
2014/05/12,13:20,0.7,0.5,0.8,0.7,0.7,0.3,0.3,south,15.4,No
2014/05/12,13:30,0.7,0.5,0.8,0.7,0.7,0.3,0.3,south,14.5,No
2014/05/12,13:40,0.7,0.5,0.8,0.7,0.7,0.3,0.3,south-southeast,13.4,No
2014/05/12,13:50,0.7,0.5,0.8,0.7,0.7,0.3,0.3,south,13.2,No
2014/05/12,14:00,0.7,0.5,0.8,0.7,0.7,0.3,0.3,south,14.9,No
2014/05/12,14:10,0.7,0.5,0.8,0.7,0.7,0.3,0.3,south,13.7,No
2014/05/12,14:20,0.7,0.5,0.8,0.7,0.7,0.3,0.3,south,13.7,No
2014/05/12,14:30,0.7,0.5,0.8,0.7,0.7,0.3,0.3,south,13.7,No
2014/05/12,14:40,0.7,0.5,0.8,0.7,0.7,0.3,0.3,south,13.0,No
2014/05/12,14:50,0.7,0.5,0.8,0.7,0.7,0.3,0.3,south-southwest,13.3,No
2014/05/12,15:00,0.7,0.5,0.8,0.7,0.7,0.3,0.3,south,11.8,No
2014/05/12,15:10,0.7,0.5,0.8,0.7,0.7,0.3,0.3,south,11.5,No
2014/05/12,15:20,0.7,0.5,0.8,0.7,0.7,0.3,0.3,south-southwest,10.3,No
2014/05/12,15:30,0.7,0.5,0.8,0.7,0.7,0.3,0.3,south,11.6,No
2014/05/12,15:40,0.7,0.5,0.8,0.7,0.7,0.3,0.3,south-southwest,12.1,No
2014/05/12,15:50,0.7,0.5,0.8,0.7,0.7,0.3,0.3,south,11.2,No
2014/05/12,16:00,0.7,0.5,0.8,0.7,0.7,0.3,0.3,south,11.0,No
2014/05/12,16:10,0.7,0.5,0.8,0.7,0.7,0.3,0.3,south,9.2,No
2014/05/12,16:20,0.7,0.5,0.8,0.7,0.7,0.3,0.3,south,10.1,No
2014/05/12,16:30,0.7,0.5,0.8,0.7,0.7,0.3,0.3,south,11.1,No
2014/05/12,16:40,0.7,0.5,0.8,0.7,0.7,0.3,0.3,south,10.2,No
2014/05/12,16:50,0.7,0.5,0.8,0.7,0.7,0.3,0.3,south,10.6,No
2014/05/12,17:00,0.7,0.5,0.8,0.7,0.7,0.3,0.3,south,11.3,No
2014/05/12,17:10,0.7,0.5,0.8,0.7,0.7,0.3,0.3,south,9.0,No
2014/05/12,17:20,0.7,0.5,0.8,0.7,0.7,0.3,0.3,south-southwest,9.7,No
2014/05/12,17:30,0.7,0.5,0.8,0.7,0.7,0.3,0.3,south-southwest,9.3,No
2014/05/12,17:40,0.7,0.5,0.8,0.7,0.7,0.3,0.3,south-southwest,11.1,No
2014/05/12,17:50,0.7,0.5,0.8,0.7,0.7,0.3,0.3,south-southwest,10.6,No
2014/05/12,18:00,0.7,0.5,0.8,0.7,0.7,0.3,0.3,south-southwest,10.4,No
2014/05/12,18:10,0.7,0.5,0.8,0.7,0.7,0.3,0.3,south-southwest,12.1,No
2014/05/12,18:20,0.7,0.5,0.8,0.7,0.7,0.3,0.3,south-southwest,10.7,No
2014/05/12,18:30,0.7,0.5,0.8,0.7,0.7,0.3,0.3,south-southwest,9.4,No
2014/05/12,18:40,0.7,0.5,0.8,0.7,0.7,0.3,0.3,south-southwest,8.3,No
2014/05/12,18:50,0.7,0.5,0.8,0.7,0.7,0.3,0.3,south-southwest,7.6,No
2014/05/12,19:00,0.7,0.5,0.8,0.7,0.7,0.3,0.3,south,8.5,No
2014/05/12,19:10,0.7,0.5,0.8,0.7,0.7,0.3,0.3,south-southwest,7.8,Yes
2014/05/12,19:20,0.7,0.5,0.8,0.7,0.7,0.3,0.3,south-southwest,7.8,Yes
2014/05/12,19:30,0.7,0.5,0.7,0.7,0.6,0.3,0.3,south-southwest,8.6,Yes
2014/05/12,19:40,0.7,0.5,0.8,0.7,0.6,0.3,0.3,south-southwest,9.2,Yes
2014/05/12,19:50,0.7,0.5,0.8,0.7,0.6,0.3,0.3,south-southwest,10.0,Yes
2014/05/12,20:00,0.7,0.5,0.8,0.7,0.6,0.3,0.3,south,9.3,Yes
2014/05/12,20:10,0.7,0.5,0.7,0.7,0.6,0.3,0.3,south-southwest,10.3,No
2014/05/12,20:20,0.7,0.5,0.8,0.7,0.6,0.3,0.3,south-southwest,10.5,Yes
2014/05/12,20:30,0.7,0.5,0.8,0.7,0.7,0.3,0.3,south-southwest,10.7,Yes
2014/05/12,20:40,0.7,0.5,0.8,0.7,0.6,0.3,0.3,south-southwest,9.5,Yes
2014/05/12,20:50,0.7,0.5,0.7,0.7,0.6,0.3,0.3,south-southwest,11.1,No
2014/05/12,21:00,0.7,0.5,0.7,0.7,0.6,0.3,0.3,south,11.2,No
2014/05/12,21:10,0.7,0.5,0.7,0.7,0.6,0.3,0.3,south,11.6,Yes
2014/05/12,21:20,0.7,0.5,0.8,0.7,0.6,0.3,0.3,south-southwest,11.2,Yes
2014/05/12,21:30,0.7,0.5,0.8,0.7,0.6,0.3,0.3,south-southwest,10.2,Yes
2014/05/12,21:40,0.7,0.5,0.8,0.7,0.6,0.3,0.3,south-southwest,9.5,Yes
2014/05/12,21:50,0.7,0.5,0.7,0.7,0.7,0.3,0.3,south-southwest,8.6,Yes
2014/05/12,22:00,0.7,0.5,0.8,0.7,0.6,0.3,0.3,south-southwest,8.5,No
2014/05/12,22:10,0.7,0.5,0.7,0.7,0.6,0.3,0.3,south-southwest,8.9,Yes
2014/05/12,22:20,0.7,0.5,0.8,0.7,0.6,0.3,0.3,south,9.3,Yes
2014/05/12,22:30,0.7,0.5,0.8,0.7,0.6,0.3,0.3,south,9.3,Yes
2014/05/12,22:40,0.7,0.5,0.7,0.7,0.6,0.3,0.3,south,10.4,Yes
2014/05/12,22:50,0.7,0.5,0.7,0.7,0.6,0.3,0.3,south,10.6,No
2014/05/12,23:00,0.7,0.5,0.8,0.7,0.6,0.3,0.3,south,9.2,Yes
2014/05/12,23:10,0.7,0.5,0.8,0.7,0.6,0.3,0.3,south,8.8,Yes
2014/05/12,23:20,0.7,0.5,0.7,0.7,0.7,0.3,0.3,south,9.5,Yes
2014/05/12,23:30,0.7,0.5,0.8,0.7,0.6,0.3,0.3,south,11.9,Yes
2014/05/12,23:40,0.7,0.5,0.8,0.7,0.6,0.3,0.3,south,13.2,Yes
2014/05/12,23:50,0.7,0.5,0.7,0.7,0.6,0.3,0.3,south,12.2,Yes
